Wind_Speed
15 17 16 14 15 12 6 4 0 1 0 4 4 4 4 4 7 8 9 8 5 4 5 8 7 6 6 9 9 8 7 4 1 1 4 7 11 11 9 12 14 15 14 16 19 21 19 18 18 17 17 18 19 18 18 19 18 18 19 19 18 17 18 18 20 20 19 18 16 15 15 14 13 11 10 9 9 8 7 6 6 6 7 7 8 8 8 9 9 9 10 9 9 9 10 11 11
16 16 15 13 12 7 2 2 0 2 3 5 3 4 5 6 7 7 8 6 5 7 9 10 10 11 11 11 8 6 7 6 2 3 7 11 12 10 12 13 15 17 18 18 18 19 19 18 17 16 17 20 20 18 18 18 18 18 18 18 17 17 17 17 19 20 19 17 15 14 14 13 11 10 9 8 8 8 7 6 5 5 6 7 7 8 7 8 9 9 9 9 9 9 10 10 10
15 15 13 11 8 5 1 1 1 3 3 5 4 4 5 6 6 6 6 8 10 12 11 10 9 7 7 8 5 4 4 5 6 7 8 12 11 11 14 13 16 19 18 18 18 17 18 17 15 15 17 20 20 18 16 17 17 17 17 18 17 17 17 18 19 19 18 16 14 14 13 12 10 9 8 8 7 7 6 5 5 5 5 6 7 7 6 7 8 8 8 8 9 10 10 10 11
15 13 10 7 4 3 2 0 1 2 3 4 4 3 5 7 8 8 9 11 12 11 9 7 6 5 5 10 6 6 6 4 5 6 8 10 10 13 15 14 17 20 18 16 18 18 18 17 15 15 17 18 20 18 15 17 18 16 16 18 17 17 18 17 17 18 16 15 14 13 12 11 10 9 8 7 6 6 5 4 4 4 5 5 6 6 6 6 6 7 7 8 9 10 10 11 12
13 9 5 5 2 0 1 1 1 1 3 2 3 4 5 9 10 11 11 10 8 7 8 6 6 4 8 9 3 5 6 4 5 5 7 8 12 16 15 16 19 20 19 16 18 19 17 17 15 15 17 17 19 18 17 18 18 17 17 18 17 17 18 17 17 17 15 14 13 12 11 10 10 9 8 6 6 5 5 4 3 3 3 4 4 5 5 6 6 7 7 8 9 10 10 9 9
10 6 2 2 0 0 1 2 2 2 3 1 4 5 6 10 12 14 12 8 7 7 7 7 8 8 8 8 5 6 5 4 6 5 7 10 14 17 15 17 19 19 20 18 19 19 16 16 15 15 16 17 16 17 18 18 18 18 18 18 17 17 16 15 16 16 15 14 12 12 11 10 10 8 7 6 5 5 4 3 3 2 2 2 3 4 5 6 7 7 8 9 10 10 9 8 7
7 4 1 1 1 0 1 3 2 2 2 2 4 8 9 11 12 14 13 9 8 6 7 9 10 11 8 6 7 6 3 3 5 6 9 13 15 17 15 16 18 19 20 19 19 18 15 16 15 14 15 16 15 16 17 17 17 17 18 17 16 15 15 14 15 14 14 13 12 12 11 9 9 8 7 6 5 4 3 2 2 1 1 1 2 4 5 6 7 7 8 9 9 9 9 8 8
4 1 0 1 1 0 1 3 2 2 2 2 4 9 11 12 11 12 12 8 7 6 9 10 9 11 8 5 6 5 4 5 6 9 13 15 15 15 14 14 16 17 19 19 19 16 14 15 14 14 15 16 15 16 18 19 18 17 17 16 15 15 15 14 14 14 13 12 11 11 11 9 8 8 7 5 4 3 2 2 1 1 0 1 2 4 5 7 8 8 7 7 8 9 8 9 10
3 1 1 1 1 2 2 2 2 2 3 5 6 9 11 11 10 10 11 8 8 10 10 8 5 9 9 7 8 5 5 7 10 14 15 15 14 14 12 13 15 17 19 19 18 15 13 14 13 14 16 17 16 17 20 20 18 17 17 16 15 15 14 14 14 13 13 11 11 10 10 9 8 7 5 4 3 3 2 2 1 1 1 2 3 5 6 8 8 7 6 7 8 9 8 9 10
3 2 0 1 1 3 3 2 2 3 4 6 7 10 11 10 8 9 10 10 11 11 9 7 5 10 12 10 8 5 6 10 14 15 14 15 14 13 12 13 15 17 19 20 18 14 13 13 13 14 16 17 16 18 21 20 18 17 16 15 15 14 14 14 13 12 12 10 10 9 9 8 7 6 4 4 2 2 2 2 2 2 3 4 6 8 9 8 7 6 6 6 6 8 10 10 10
1 1 0 1 2 3 3 3 3 4 5 6 6 9 9 9 9 8 10 11 10 10 9 7 9 13 12 9 6 5 9 13 15 15 14 15 14 13 12 13 15 17 18 19 18 15 13 13 12 13 15 15 16 18 20 19 18 16 15 14 14 13 13 13 12 11 11 10 9 8 8 7 6 5 4 4 3 3 2 2 2 3 4 5 7 10 10 8 8 7 6 6 5 8 11 10 10
1 1 1 1 2 2 2 4 5 5 6 7 8 8 7 9 10 10 12 11 9 10 8 6 10 12 11 8 5 7 13 14 14 16 15 15 14 14 13 13 15 16 17 18 17 16 14 13 12 13 14 15 16 18 18 18 18 16 15 14 13 13 13 12 11 11 10 9 8 7 7 7 6 6 5 4 4 3 3 3 3 3 4 6 9 10 9 10 11 9 8 8 8 9 12 11 10
2 2 1 0 0 1 4 4 5 6 6 6 8 8 8 9 10 12 13 11 11 10 7 7 11 10 9 8 6 9 13 15 15 16 17 15 15 14 13 14 15 16 17 16 16 17 16 16 15 14 15 14 15 17 17 17 16 15 15 14 14 14 13 12 11 10 9 8 8 7 7 7 7 6 5 5 4 4 3 3 3 4 6 7 10 10 10 11 12 12 11 12 10 9 11 12 11
3 2 1 1 1 3 5 4 6 6 5 7 8 9 9 6 8 12 13 14 10 6 9 11 12 10 9 9 7 8 13 17 18 17 17 16 16 16 15 15 15 16 17 15 15 16 17 18 16 16 17 14 14 14 14 15 14 14 13 13 14 13 12 11 11 10 9 9 8 8 8 7 7 6 5 5 4 3 4 4 4 6 7 8 10 11 13 12 13 14 14 13 12 8 8 9 8
3 2 0 2 3 4 4 3 7 6 4 8 9 11 9 3 8 11 12 14 7 6 11 10 8 6 9 11 9 11 16 20 20 18 18 17 18 16 16 16 15 17 17 15 15 15 16 17 15 16 17 15 15 14 13 14 14 14 13 12 12 11 11 11 11 10 8 9 8 8 7 7 6 5 5 4 3 3 4 5 6 8 9 10 10 12 15 16 16 16 15 14 13 9 6 7 8
2 1 1 2 4 5 4 3 6 5 5 9 11 11 8 6 9 7 5 7 9 10 10 8 5 2 7 9 10 17 20 22 21 20 19 18 19 17 17 16 15 17 16 15 15 15 17 17 17 18 17 16 16 15 14 14 14 13 12 12 12 11 11 10 10 9 8 8 7 7 7 6 6 5 5 4 4 4 4 6 8 10 11 11 11 13 15 17 16 16 16 14 12 9 7 7 7
2 2 1 2 4 5 6 7 6 5 7 11 12 12 9 9 7 3 3 7 13 13 7 7 4 2 8 8 14 23 23 22 22 21 21 19 18 17 18 17 17 18 16 16 16 17 18 17 18 19 18 17 16 16 14 14 14 13 12 12 12 11 11 11 10 10 10 9 8 7 7 7 6 6 5 5 4 4 5 7 9 11 12 12 12 13 13 14 14 15 14 12 10 9 7 7 7
3 2 2 2 4 6 7 10 7 6 10 13 14 14 12 12 9 6 7 8 13 11 7 7 4 5 11 13 20 24 23 24 22 23 22 19 18 17 18 18 18 18 17 16 16 17 18 18 17 18 19 17 16 16 15 14 14 14 13 12 12 12 12 12 12 11 10 9 9 8 8 7 7 6 6 6 5 4 5 7 8 10 12 12 12 12 12 12 12 12 13 11 9 8 8 9 10
4 1 2 3 3 5 7 10 8 7 12 15 14 14 12 12 11 9 9 11 14 12 9 8 8 11 14 17 23 23 24 25 23 24 24 21 20 19 19 18 18 18 17 16 17 18 18 18 18 19 19 17 17 16 16 15 14 14 13 12 12 12 12 13 12 11 11 10 10 9 8 8 7 7 6 6 5 6 7 7 8 10 11 11 11 11 11 10 10 10 10 9 8 8 9 11 13
4 2 4 4 4 4 6 12 11 8 13 16 15 13 11 12 11 8 10 13 14 12 12 12 11 14 15 19 23 24 24 24 24 24 24 24 22 21 20 20 20 18 16 16 18 19 18 19 19 19 19 19 18 17 17 16 15 14 13 13 12 12 13 13 12 12 12 11 10 9 9 8 8 7 7 6 6 7 8 9 9 11 11 11 10 10 9 8 8 7 7 7 7 7 9 11 13
3 4 6 3 4 6 7 13 12 10 14 16 14 13 11 12 10 9 12 12 10 11 14 15 16 18 18 20 22 24 24 23 23 23 23 25 23 21 20 20 20 17 16 15 18 19 20 21 20 20 20 20 19 18 17 16 16 16 15 15 13 13 13 13 13 12 12 11 10 10 9 9 8 8 8 7 7 7 9 10 11 11 11 10 9 8 8 9 7 6 5 5 5 5 7 10 13
3 6 6 2 5 6 7 12 13 12 13 15 15 14 12 12 9 11 15 11 6 9 13 14 16 19 20 21 23 23 23 23 23 22 22 24 23 21 20 19 18 17 16 15 17 19 21 21 21 20 21 20 20 19 17 17 17 17 17 16 15 14 13 13 14 13 12 11 11 11 10 10 9 9 9 9 8 8 10 11 11 11 10 9 9 9 9 9 9 7 6 5 5 4 5 10 14
5 5 4 4 6 5 7 12 13 14 15 16 16 13 13 13 10 12 16 7 2 4 11 13 15 19 22 22 22 22 22 22 23 23 22 23 23 22 21 20 18 18 17 17 18 19 21 22 21 21 21 20 20 19 18 17 17 17 17 17 16 16 15 14 14 14 13 12 12 12 11 11 11 11 11 11 10 10 11 11 12 11 10 9 8 8 9 10 10 8 7 6 6 6 7 12 15
7 6 3 5 7 6 9 13 14 16 17 16 14 13 15 16 10 11 14 4 4 4 13 15 16 20 22 20 20 21 22 23 24 24 23 22 23 22 21 19 17 17 18 18 18 18 21 22 21 21 21 20 20 19 18 18 17 17 17 17 17 16 16 15 14 15 14 13 13 12 12 12 12 12 12 13 12 11 11 11 11 10 9 9 9 8 9 9 9 9 8 7 8 9 11 14 16
8 7 3 3 4 6 9 12 15 15 13 12 14 14 14 12 9 11 13 3 2 9 15 16 17 19 19 20 20 20 21 23 23 23 22 20 21 21 19 17 17 18 18 18 17 17 19 21 22 21 20 21 20 20 19 18 17 17 17 18 17 17 16 15 15 15 14 14 14 13 13 12 12 12 13 13 12 11 10 10 9 10 9 9 9 9 9 8 9 8 8 9 10 12 13 14 16
6 7 4 3 5 7 10 12 15 12 9 13 16 12 9 8 9 10 10 4 6 12 16 18 18 18 18 18 20 19 19 22 23 23 22 20 20 21 20 19 19 19 18 17 17 17 18 20 21 21 21 21 20 20 19 19 18 17 17 18 18 17 17 16 16 15 15 15 15 14 13 13 13 12 12 11 11 10 9 9 9 9 9 9 9 9 9 8 8 7 8 9 11 14 13 14 15
3 4 2 2 4 6 10 12 12 11 9 14 15 10 8 8 6 7 7 7 10 13 15 18 18 18 17 16 17 18 19 21 24 23 22 21 21 22 22 20 20 19 18 17 18 18 18 19 20 21 21 21 20 19 20 20 18 19 19 18 18 18 17 17 17 17 16 16 15 14 13 13 13 13 12 11 10 10 9 9 9 9 9 9 9 9 9 8 8 8 9 10 12 13 11 11 13
3 7 4 3 5 6 8 11 13 11 8 10 13 10 7 6 6 6 9 11 12 14 15 16 17 16 16 16 16 16 17 20 22 22 23 22 21 21 21 20 21 20 19 19 19 18 18 19 19 20 21 21 21 18 18 19 19 19 19 19 19 19 18 18 17 17 18 18 16 15 14 14 14 14 13 12 11 11 10 10 9 9 9 9 9 9 9 9 8 9 10 11 12 11 9 9 10
6 8 5 4 6 6 6 8 13 11 8 11 14 8 6 9 7 5 12 13 13 14 14 15 15 15 15 15 14 14 16 18 20 20 21 21 19 19 19 20 20 19 18 19 19 18 18 18 19 19 20 21 21 19 18 19 18 18 18 18 19 19 19 19 18 18 18 18 16 16 16 15 15 15 14 14 12 11 10 10 10 9 9 9 9 9 9 9 9 9 10 10 10 9 8 8 8
7 4 3 6 5 5 6 6 11 10 9 16 15 5 8 13 8 7 12 14 15 14 14 14 13 13 13 14 13 13 16 18 19 19 19 19 19 19 19 19 20 19 17 17 19 21 20 19 19 19 21 21 21 20 18 18 18 17 18 18 18 18 19 19 19 18 18 17 16 16 16 16 16 15 14 13 13 12 12 12 11 10 9 9 9 9 8 8 8 8 8 7 7 8 6 5 5
6 4 3 5 4 7 7 6 11 10 7 12 12 7 6 10 9 9 12 15 17 15 14 15 13 13 13 13 13 12 14 17 18 19 19 20 19 19 20 20 20 20 17 18 22 24 24 22 22 21 21 21 20 21 20 19 18 17 18 18 17 18 18 19 18 18 18 17 17 17 16 15 15 14 14 13 13 13 12 13 13 11 9 8 8 8 7 7 7 7 7 6 5 5 4 3 4
4 4 3 4 4 6 7 6 10 12 7 7 9 7 4 6 10 11 12 14 16 15 14 15 14 14 14 13 13 12 12 15 17 19 20 21 20 19 20 21 21 21 20 21 24 26 26 26 25 23 22 22 21 22 22 20 19 19 19 19 18 18 18 18 18 18 17 17 17 18 16 15 14 14 14 14 14 13 13 15 14 10 8 7 7 8 6 6 6 5 4 4 4 4 3 4 4
3 3 4 6 6 6 7 6 7 10 11 9 10 6 2 3 9 13 14 15 16 14 14 15 15 15 14 12 12 11 11 13 15 18 19 20 19 19 20 21 22 22 22 23 25 27 27 27 27 25 23 24 24 23 23 22 20 20 20 18 16 15 16 16 16 17 18 19 19 19 17 16 16 16 16 16 16 15 15 16 13 8 6 6 7 6 5 4 3 3 2 2 3 3 4 5 5
4 3 2 4 6 6 7 6 6 10 14 12 10 7 2 3 7 12 13 15 16 14 14 15 14 13 12 11 11 12 12 13 14 17 20 19 18 19 19 20 21 22 23 25 27 28 28 27 27 27 25 24 24 25 25 23 21 20 19 18 16 15 15 14 15 17 18 17 17 18 18 18 18 17 17 17 18 18 17 14 9 5 5 6 6 4 3 3 2 2 2 2 3 3 4 5 5
8 7 5 4 5 6 7 6 7 12 14 12 11 10 5 3 6 11 11 14 15 14 14 14 14 14 12 12 12 12 12 13 14 18 21 21 19 19 19 19 20 20 21 24 27 28 28 28 27 27 27 25 25 27 26 23 21 19 18 18 17 17 18 17 18 18 16 16 17 18 19 19 18 17 16 17 19 18 16 12 8 6 6 6 5 3 2 2 2 2 3 3 3 3 3 4 4
11 8 6 8 7 5 6 6 6 13 12 11 11 10 7 3 6 10 11 12 13 12 12 11 12 13 12 12 11 12 13 14 15 18 21 21 20 20 19 19 19 20 21 22 25 27 28 29 28 28 28 27 27 26 24 21 19 17 16 16 17 19 20 18 19 18 17 18 19 18 19 20 18 17 18 19 19 16 11 9 8 7 6 6 5 3 2 2 2 3 4 4 3 3 2 2 3
11 7 5 7 6 6 8 6 7 13 10 9 10 7 6 4 7 10 11 12 13 13 13 12 12 12 12 13 13 13 14 12 12 15 18 18 19 19 19 19 19 19 20 21 23 26 28 29 29 29 30 29 29 26 22 21 19 17 16 16 18 20 20 19 19 20 19 18 18 18 19 19 17 17 18 19 17 12 10 10 8 7 6 6 4 3 2 3 3 3 4 4 3 3 1 1 2
10 9 7 6 5 5 7 7 8 12 9 7 8 8 9 6 7 10 11 13 15 16 15 14 14 13 12 14 15 15 13 10 9 12 15 17 18 19 19 19 20 20 21 22 23 25 28 29 29 31 31 31 30 27 25 22 20 20 20 19 21 21 20 20 20 21 20 17 16 16 17 16 13 13 14 15 12 9 10 10 8 7 6 6 4 3 3 3 3 4 4 3 3 3 2 2 2
9 7 7 6 5 4 4 5 9 10 8 5 7 10 9 5 7 11 14 15 14 14 15 13 13 13 12 14 15 14 13 11 11 13 16 18 19 19 19 18 20 22 21 23 25 25 26 28 29 31 32 31 30 27 26 24 20 22 24 22 21 20 19 20 20 21 20 18 15 11 12 13 11 10 11 11 10 10 10 9 8 7 6 6 4 3 3 3 4 5 4 4 3 3 2 2 2
7 7 7 6 7 7 5 5 8 7 3 1 6 7 6 4 7 10 14 15 11 12 14 12 12 13 14 15 14 14 15 14 14 15 15 18 20 19 19 20 20 20 20 22 24 24 25 28 31 32 32 33 31 26 27 26 21 23 25 23 21 20 19 19 19 19 19 18 14 10 10 12 11 9 9 11 11 11 10 9 7 7 6 6 4 4 4 4 5 5 5 5 4 3 3 2 3
7 9 9 7 10 10 6 6 7 5 1 2 6 4 6 6 8 10 11 12 12 11 13 13 13 14 13 14 14 14 15 15 15 16 15 17 19 20 21 21 20 20 20 22 24 26 28 31 34 34 33 34 32 28 28 25 21 21 21 20 18 16 16 16 14 15 14 13 12 11 11 11 11 9 10 12 12 11 10 9 7 7 6 5 5 6 6 6 6 5 5 5 4 4 3 2 3
6 9 10 10 13 10 6 10 8 4 4 6 7 5 6 6 9 10 9 11 13 11 13 16 15 14 14 13 14 14 14 14 14 16 16 17 19 20 21 20 20 21 22 24 26 30 33 33 34 34 34 34 32 31 30 24 20 19 18 17 15 14 14 14 14 14 14 14 14 15 12 10 11 11 11 12 12 12 10 7 7 7 6 6 6 6 6 6 6 4 4 3 2 3 3 2 3
6 7 9 10 12 10 10 12 8 4 4 5 10 9 5 3 7 10 10 11 14 13 15 18 15 15 15 14 14 14 14 14 13 15 15 16 18 20 20 20 21 23 24 24 26 30 34 34 35 35 35 35 34 34 31 23 20 20 20 22 20 18 17 16 18 18 16 15 14 14 11 9 11 13 13 14 13 12 9 6 7 7 6 6 6 6 6 6 5 3 3 3 2 2 2 2 2
4 5 11 12 12 12 13 12 8 5 1 2 8 8 6 6 4 5 10 11 12 15 17 18 17 17 18 17 16 15 15 15 14 14 14 15 18 20 21 22 24 25 24 23 25 29 33 35 36 35 36 36 35 35 31 23 20 19 21 25 24 23 20 20 22 20 17 15 12 11 9 9 12 14 14 15 14 11 8 6 8 7 7 6 6 6 6 6 5 4 3 3 2 2 2 2 2
2 5 10 11 10 12 14 12 8 5 3 4 7 6 4 7 2 3 8 11 12 17 19 20 20 20 19 19 19 18 17 16 15 15 15 16 19 21 22 23 25 26 23 24 27 30 34 36 36 36 37 37 36 36 33 26 21 21 25 28 26 25 24 22 21 19 17 13 10 10 11 10 12 14 14 15 13 10 8 7 8 8 7 6 6 6 5 6 6 6 4 2 2 3 3 3 3
2 8 8 6 5 7 8 8 5 5 5 7 8 10 6 6 3 4 6 8 12 16 17 19 20 20 19 18 19 19 16 15 15 16 16 18 21 23 23 22 23 24 23 26 29 31 33 35 36 37 37 37 36 36 35 29 23 23 29 31 28 27 25 22 21 18 14 10 9 13 13 11 12 14 15 14 13 10 8 8 8 7 6 7 7 5 6 6 6 5 4 2 2 3 2 2 3
8 10 8 8 6 4 3 1 3 4 6 7 10 15 10 6 4 7 7 8 13 14 12 14 17 19 19 18 18 18 16 14 14 15 16 19 22 22 21 22 23 23 23 26 27 28 31 34 36 38 38 38 37 36 35 30 24 22 29 34 31 28 26 24 21 18 14 11 13 16 15 14 15 16 16 15 13 11 10 9 8 7 7 7 7 7 6 5 4 4 4 3 3 3 3 3 3
10 7 6 7 4 3 3 2 3 5 6 4 7 13 12 9 5 6 10 11 11 12 13 15 18 20 20 18 18 18 16 15 14 14 15 16 17 18 20 22 23 23 23 25 26 28 30 33 36 37 38 38 37 36 34 30 27 24 27 33 33 29 27 25 23 21 18 16 16 18 18 17 18 18 18 16 14 12 11 11 10 9 8 7 7 8 7 5 5 4 5 4 4 4 4 3 3
9 7 8 7 3 4 4 3 4 5 4 0 3 9 10 9 7 6 10 12 12 13 14 14 16 19 19 19 18 16 15 16 16 15 14 14 14 16 20 22 22 23 25 26 27 26 28 33 37 37 38 38 37 37 33 29 28 27 28 33 33 30 28 26 25 23 21 19 18 19 20 20 20 20 19 17 16 14 14 14 13 12 10 8 9 9 8 7 6 6 6 5 5 4 4 4 4
10 9 9 9 6 6 6 3 2 3 4 1 4 8 6 6 7 10 14 16 15 14 13 11 10 13 16 17 17 15 15 17 15 15 15 14 13 16 21 23 23 23 25 27 27 27 28 31 36 37 38 38 37 37 35 32 30 28 32 35 33 31 29 27 26 24 22 21 20 21 22 23 24 23 21 19 17 16 16 16 15 14 12 10 10 10 9 9 8 7 7 6 6 6 6 6 6
9 7 7 9 6 6 6 4 4 4 2 2 5 6 6 4 1 4 10 12 11 10 11 10 8 9 10 13 15 16 17 17 14 14 16 15 16 19 22 23 23 25 26 27 26 27 28 31 36 39 37 37 37 36 36 36 32 29 33 36 34 32 30 27 27 25 24 24 23 24 25 26 26 25 23 21 18 18 18 18 17 16 14 11 10 10 10 9 8 8 8 8 8 8 8 9 9
7 4 6 8 7 6 3 1 2 2 2 3 5 4 4 3 5 6 7 7 8 10 10 11 12 11 9 11 15 16 17 17 15 16 16 16 18 21 23 23 24 26 26 27 27 28 30 33 37 40 40 38 37 36 36 37 36 32 33 35 34 33 30 28 29 27 26 26 26 26 27 27 28 26 24 21 19 19 19 19 19 17 15 13 12 11 10 9 8 8 8 9 9 9 9 9 10
4 5 7 4 3 6 4 1 1 1 4 4 5 4 3 2 8 8 5 7 10 9 9 11 12 12 12 11 14 16 16 17 17 17 17 17 19 22 25 25 25 26 27 27 29 34 38 37 37 39 40 38 37 37 37 35 35 34 33 35 35 33 31 30 30 29 29 29 27 27 27 28 28 26 23 21 20 20 20 20 19 18 17 14 13 13 11 10 9 9 9 10 10 9 9 9 9
5 7 8 4 2 2 2 3 2 3 7 4 4 7 5 3 5 3 1 7 10 10 9 9 9 12 14 13 14 16 17 18 18 17 17 16 18 22 26 26 27 29 29 31 36 42 43 41 39 38 36 38 39 36 35 34 34 33 34 35 35 33 32 31 31 31 31 30 29 28 28 28 28 26 24 22 21 21 21 20 20 19 18 16 15 15 14 12 11 10 10 11 11 11 11 11 11
2 4 9 6 4 4 2 4 4 5 7 4 4 6 5 6 5 3 4 7 8 10 8 7 9 13 14 14 15 15 15 15 16 16 15 15 17 21 25 26 28 29 30 34 39 40 37 37 39 37 37 42 39 30 30 33 33 33 34 35 35 34 32 32 32 32 32 31 30 29 29 28 27 26 24 23 23 22 22 21 21 20 19 17 16 16 15 13 12 11 11 11 11 12 13 12 12
0 3 8 4 4 5 4 3 4 5 7 4 4 5 4 6 6 6 10 9 9 10 7 6 10 13 13 13 13 13 14 14 15 16 16 17 19 23 27 28 29 29 29 32 34 33 32 34 36 37 36 37 33 29 32 34 32 34 35 35 35 34 34 34 33 33 33 32 30 29 29 27 26 25 24 24 23 23 23 22 21 21 20 19 17 16 15 14 13 12 11 11 11 12 13 12 12
5 7 8 4 2 2 3 3 2 4 5 4 6 6 4 4 5 9 12 10 9 10 8 7 9 11 12 11 11 12 13 14 15 16 17 18 19 23 27 28 28 28 28 30 29 30 33 33 34 36 34 31 28 28 32 34 34 36 36 35 36 35 35 35 34 34 32 30 29 28 26 25 24 24 24 24 23 22 22 21 21 21 20 19 18 16 15 14 14 13 12 12 12 12 12 13 13
10 9 8 8 6 4 5 6 2 2 3 3 4 6 4 4 5 8 10 10 10 10 8 8 8 9 8 7 10 12 13 14 16 16 17 17 17 20 24 26 26 26 26 28 27 28 31 30 30 31 30 29 27 27 32 35 35 36 37 36 35 35 34 32 31 30 28 28 27 25 22 22 23 22 22 22 21 21 21 21 21 21 20 20 18 16 15 14 14 13 12 12 12 12 13 14 14
Wind_Direction
148 154 154 159 161 151 154 216 207 76 66 85 91 105 99 103 122 130 132 134 121 101 87 89 90 90 99 105 109 93 50 11 324 24 87 117 142 146 155 165 170 159 147 146 147 149 150 148 149 150 152 151 149 150 151 153 151 147 145 145 143 139 139 142 146 147 148 147 144 141 136 134 132 131 135 139 139 140 139 137 126 112 102 90 82 77 74 70 66 64 66 61 52 49 50 48 48
151 154 158 165 166 163 149 220 99 92 110 95 95 98 116 132 135 136 139 136 106 112 107 96 88 82 93 104 111 93 48 26 56 87 92 124 136 139 149 159 167 160 153 150 147 150 152 150 148 146 154 158 155 152 152 155 153 149 148 147 146 144 142 142 146 147 146 145 143 140 136 135 132 134 140 144 143 141 139 133 119 104 90 82 76 71 67 63 62 65 64 56 49 43 43 40 43
155 155 167 178 183 208 248 214 155 107 103 97 106 114 140 142 130 121 123 118 114 123 113 102 89 71 103 107 68 58 70 61 96 101 112 136 138 143 151 156 165 163 157 152 152 151 150 150 148 145 153 161 160 155 152 156 155 151 150 150 148 146 145 144 144 145 144 142 142 141 138 139 138 142 147 147 143 137 132 120 106 91 79 75 73 70 65 58 57 61 54 50 48 41 38 28 30
157 161 174 195 206 218 258 86 105 102 97 102 116 135 153 135 120 108 110 117 125 130 113 102 76 31 80 97 80 81 101 113 113 107 128 148 144 145 151 158 164 166 161 155 155 152 149 151 152 150 152 160 163 160 156 157 157 155 152 150 148 147 146 144 144 145 144 142 145 144 142 144 145 148 149 146 144 138 128 114 100 85 74 72 73 71 64 56 49 48 41 43 45 40 39 28 26
148 162 181 222 248 314 281 82 109 75 92 116 122 141 151 130 123 118 117 119 126 124 113 110 92 70 73 83 96 107 117 133 135 122 130 148 142 141 147 157 162 165 164 158 155 150 149 156 158 157 154 158 166 166 162 160 157 154 151 149 147 145 144 144 146 148 149 148 148 146 145 150 151 150 147 144 146 145 133 121 108 86 76 79 77 67 56 51 42 36 33 34 35 33 35 34 33
148 169 173 200 191 13 228 115 127 87 87 168 131 139 147 134 131 127 122 108 100 97 100 105 111 113 85 76 83 107 137 133 136 136 133 147 145 143 143 151 158 163 165 160 156 148 149 161 160 157 158 157 160 162 162 161 157 152 150 148 145 145 146 145 146 149 152 152 150 147 149 154 151 148 148 150 156 155 145 133 116 102 97 91 77 64 49 40 33 29 28 24 28 28 24 27 27
163 185 128 112 124 241 191 108 119 96 109 210 144 144 148 138 136 133 129 119 103 85 92 108 118 112 94 101 96 89 129 132 135 135 138 146 147 146 142 144 151 160 165 162 156 150 152 160 155 154 160 156 151 155 161 163 158 151 149 148 146 148 150 149 148 149 150 152 152 150 155 156 150 151 156 162 164 163 157 143 138 145 119 86 66 54 39 27 25 27 28 18 18 20 10 3 5
137 150 20 294 206 54 112 106 101 72 111 146 129 142 147 142 142 138 136 132 122 113 113 122 123 105 98 129 114 87 103 128 134 133 140 142 144 145 140 140 144 155 164 165 160 154 157 160 155 152 155 153 150 155 161 162 158 151 149 147 148 151 151 151 150 150 152 155 155 155 159 157 157 162 163 167 165 170 175 172 184 196 265 10 26 32 30 25 25 27 27 17 8 4 358 348 352
68 30 166 282 244 104 117 96 84 75 111 131 127 135 141 143 144 140 134 121 123 127 125 134 129 111 118 122 115 114 112 124 133 136 141 140 144 143 139 141 143 153 159 165 165 159 161 162 156 149 150 151 150 156 159 158 157 154 150 149 151 153 153 154 155 156 159 159 158 160 162 160 164 167 166 170 170 179 184 195 219 253 296 341 358 12 27 28 23 19 16 14 5 344 338 342 348
63 12 111 263 190 126 131 94 98 98 114 133 134 140 144 148 143 137 135 127 130 127 120 116 108 120 127 120 116 132 133 135 138 139 142 143 147 144 140 144 147 151 154 161 163 160 162 159 155 150 149 149 151 157 159 155 153 154 151 151 153 156 157 156 159 161 160 160 161 165 165 164 169 171 171 177 184 191 196 219 244 286 322 346 357 10 18 17 9 10 9 9 4 330 330 345 346
120 62 55 224 152 144 147 115 119 112 124 130 131 144 147 149 138 130 128 127 133 127 128 121 113 122 121 121 121 127 141 146 146 145 145 146 148 146 143 147 151 149 150 156 156 158 161 157 153 151 150 148 154 159 159 155 150 153 153 154 156 158 160 159 162 164 162 163 165 167 168 168 173 175 175 183 196 203 215 236 268 306 334 345 0 11 3 358 357 359 358 357 358 330 332 344 339
172 133 212 214 146 148 144 127 127 124 138 142 146 153 151 151 142 141 137 134 140 132 143 149 135 132 120 125 132 139 152 155 152 149 148 147 149 149 145 148 152 150 151 153 153 157 159 159 157 156 155 152 159 159 156 155 151 156 160 160 161 160 163 165 168 168 165 168 166 163 167 172 176 178 183 192 205 216 232 254 283 312 337 347 1 1 346 351 350 342 346 351 354 335 330 334 332
170 149 222 225 90 143 142 135 133 135 154 161 159 157 154 158 157 152 141 139 148 143 150 154 146 136 117 128 135 150 162 161 155 151 151 150 152 151 147 149 150 152 154 153 155 158 157 159 157 155 156 154 159 157 152 153 153 158 164 163 164 165 169 168 167 166 166 170 169 169 173 179 183 186 192 202 217 232 252 275 295 319 337 353 3 346 332 346 340 338 348 351 356 346 327 323 326
165 170 261 88 105 155 142 131 149 161 169 165 155 151 158 168 164 153 141 143 149 138 133 141 147 129 119 137 146 166 169 162 157 153 155 153 153 151 148 149 150 157 157 155 158 159 158 157 154 151 153 156 157 154 151 153 155 160 164 165 167 169 169 168 167 169 170 172 176 180 183 187 190 195 204 217 229 252 281 292 307 326 341 359 2 338 329 338 336 342 351 350 356 353 328 320 333
175 164 217 125 141 160 163 161 170 179 167 164 158 153 159 153 159 158 151 147 135 122 126 140 163 135 148 163 164 172 166 161 159 155 156 154 153 151 150 152 154 162 161 159 162 161 160 157 157 156 155 160 162 160 159 159 161 166 167 168 170 171 172 173 173 176 175 176 184 187 190 194 199 209 216 228 248 279 293 303 325 342 352 0 357 336 329 332 336 346 351 353 358 355 341 340 356
203 175 170 151 159 177 191 180 171 177 167 163 155 152 143 129 159 162 155 134 120 144 143 150 186 181 168 169 154 158 158 157 158 155 155 155 154 152 155 160 162 166 166 165 168 167 166 163 163 165 164 166 169 168 166 166 167 170 172 173 173 173 177 178 177 181 183 187 196 195 199 201 204 217 223 240 263 283 303 329 344 351 351 350 345 333 326 328 335 344 350 355 357 357 359 3 8
194 212 219 170 178 192 184 174 176 167 158 158 157 163 147 139 160 121 117 126 131 153 154 145 169 195 159 144 139 148 153 155 156 156 158 158 157 159 163 167 170 170 171 171 173 173 173 172 170 172 173 173 176 173 171 173 172 174 178 179 178 180 184 184 186 190 192 198 204 202 206 207 209 217 228 245 262 288 323 342 345 345 341 337 337 332 328 330 335 341 349 355 356 359 8 12 12
184 198 219 206 194 193 185 182 175 147 156 165 166 172 159 150 156 131 134 132 136 150 148 136 115 132 139 129 138 145 150 155 158 160 162 163 163 168 171 171 175 175 175 175 177 179 180 179 177 178 177 178 183 179 175 178 178 179 182 180 180 186 190 192 195 198 200 203 203 204 208 211 215 223 235 249 269 298 316 331 334 335 332 329 334 333 329 330 333 341 350 358 1 4 9 11 10
191 181 207 230 208 183 181 180 172 159 163 165 166 171 165 154 151 153 155 145 149 152 147 143 119 125 131 134 144 148 154 159 163 166 168 170 170 173 175 176 179 179 178 179 181 183 185 183 182 184 182 183 188 186 182 183 186 186 184 181 181 187 193 196 200 202 205 205 204 208 211 215 223 231 240 253 278 301 309 319 325 326 326 326 330 328 325 329 338 348 353 359 6 12 16 15 11
203 211 228 236 201 175 174 179 181 174 160 159 165 167 164 153 151 169 162 153 165 165 158 161 148 143 144 146 150 153 158 164 168 171 174 175 176 177 180 182 182 183 182 183 184 184 187 187 187 188 188 189 191 192 188 186 190 189 188 190 189 192 196 198 202 205 208 209 210 214 217 223 232 240 247 258 279 300 311 318 323 325 327 329 332 331 333 341 348 355 357 360 10 19 24 22 15
179 201 235 237 178 186 182 182 180 167 160 159 159 160 160 156 159 169 154 154 184 188 178 173 161 155 153 153 156 159 162 167 172 175 177 178 181 183 185 186 186 186 184 185 187 186 189 190 191 191 192 193 195 197 195 193 194 192 192 196 196 197 202 204 207 211 213 215 219 223 226 230 237 244 250 259 275 296 311 319 324 328 331 332 335 339 344 350 352 357 359 0 11 23 28 19 12
186 214 244 236 176 193 176 172 168 155 156 154 157 165 158 154 167 172 163 168 194 192 188 175 160 156 156 157 157 162 167 170 176 179 180 181 183 185 187 188 189 189 188 189 190 190 190 192 194 194 195 196 198 200 199 200 199 198 198 198 200 202 207 210 212 216 218 220 224 228 233 237 242 246 249 257 272 292 307 316 322 326 329 330 331 336 344 352 352 352 353 353 357 12 13 1 359
227 227 245 219 202 201 163 161 160 150 157 162 165 163 147 155 174 178 178 188 331 165 170 161 154 155 155 157 159 165 172 175 179 182 183 183 185 187 187 188 189 189 191 193 193 192 192 193 196 197 197 198 199 202 202 203 203 204 205 203 204 207 210 214 216 219 221 224 226 229 234 241 246 250 252 258 274 289 300 311 318 321 324 323 323 328 336 347 350 350 353 354 354 352 344 341 345
230 237 239 214 212 206 165 159 163 158 165 166 157 151 156 170 169 175 187 209 348 138 149 147 149 154 155 159 166 170 175 179 182 184 185 186 189 190 189 188 187 190 195 196 194 195 195 196 197 199 200 199 200 203 204 205 204 206 208 207 208 210 213 216 219 222 225 227 229 231 234 241 246 251 255 263 276 286 295 304 312 315 317 318 318 320 325 335 343 349 355 355 349 342 337 336 337
216 231 232 200 205 199 166 161 167 163 160 148 146 159 169 169 148 171 192 178 70 140 140 144 148 155 160 164 170 173 177 182 184 185 187 190 191 191 192 191 190 194 199 197 195 197 199 199 199 201 202 202 202 204 205 206 207 207 209 210 212 214 216 219 222 224 227 229 230 231 232 240 245 251 258 267 278 285 293 299 306 310 311 314 316 314 313 321 332 340 346 344 339 337 335 333 333
201 219 223 211 197 176 166 164 165 155 143 146 152 161 161 147 136 172 192 149 127 139 140 147 152 161 166 168 173 176 179 183 185 186 188 191 192 193 195 195 195 199 200 198 197 199 201 201 202 203 203 204 204 205 207 207 207 209 211 213 215 218 219 223 226 224 227 230 230 230 232 239 246 253 260 267 277 283 290 294 300 306 309 311 314 313 306 307 317 323 328 331 332 333 332 329 330
158 198 217 222 172 155 167 160 153 136 138 159 153 148 149 148 166 191 183 152 143 144 148 152 158 166 170 172 174 177 181 183 186 186 188 190 192 193 195 195 197 200 200 198 199 201 202 202 204 205 206 206 206 208 210 209 210 211 213 216 218 219 220 224 228 228 229 230 230 231 235 242 249 257 263 267 276 280 284 291 299 304 307 310 311 312 307 301 304 309 318 325 328 329 329 329 330
146 158 92 87 125 132 160 149 148 136 136 158 134 123 139 158 213 206 158 154 155 150 155 160 163 168 172 174 174 179 185 184 184 187 190 192 193 193 194 195 197 199 200 199 200 201 202 203 205 207 208 208 208 209 211 212 213 215 217 219 222 223 223 225 229 231 232 233 232 235 239 244 252 260 266 269 272 274 280 288 296 301 306 310 311 310 306 300 300 306 316 321 325 328 328 330 334
158 153 107 116 126 130 148 149 159 149 142 149 127 119 177 196 215 166 145 155 159 156 160 167 169 168 172 175 177 184 187 182 184 190 193 194 194 195 195 195 196 198 201 202 201 202 203 205 207 209 210 211 211 210 212 215 215 219 221 222 225 226 227 228 230 233 235 236 236 238 241 245 251 259 266 270 269 269 277 284 289 296 302 310 314 311 305 301 302 306 311 316 322 327 330 333 339
149 141 129 139 141 157 155 160 163 145 145 155 152 179 209 202 197 137 152 161 158 163 167 172 174 172 173 177 181 186 187 185 187 192 193 194 195 195 197 197 196 197 198 200 202 204 206 206 207 210 212 212 213 212 213 215 216 219 222 225 228 229 231 232 232 235 237 238 240 242 244 248 254 259 263 266 267 268 273 276 279 287 300 314 314 307 302 296 297 299 302 311 319 325 333 342 346
141 126 150 160 178 170 150 166 165 145 156 172 180 227 221 190 178 151 164 166 166 172 173 176 177 176 177 179 184 187 187 190 192 194 193 196 196 195 198 197 197 198 196 199 205 209 210 211 211 211 213 212 212 214 214 215 217 220 224 228 232 233 234 235 236 238 239 241 244 247 249 254 260 261 259 260 261 263 266 268 273 284 296 314 310 297 291 282 282 287 293 307 316 321 329 340 344
149 152 176 195 201 160 147 178 177 156 165 198 199 225 249 179 167 163 172 175 176 178 175 179 180 181 182 180 186 188 187 193 197 198 197 198 197 196 198 197 197 199 199 203 208 212 214 216 216 214 214 213 212 214 216 218 221 225 228 231 234 236 236 237 239 239 240 242 245 248 252 258 261 260 259 257 257 258 262 263 268 283 294 303 298 284 276 270 272 277 288 304 310 316 312 314 326
186 220 192 194 195 166 155 170 189 162 156 193 214 224 267 158 166 167 174 181 182 182 179 182 183 184 185 183 187 188 186 192 200 203 201 200 199 198 198 197 198 200 203 206 210 213 215 217 219 218 216 215 216 217 218 220 223 228 232 234 235 237 237 237 239 240 241 243 245 249 253 257 258 258 260 260 260 260 265 271 272 275 281 281 277 269 262 263 267 269 278 286 291 301 303 306 315
185 220 204 209 196 173 156 150 180 171 164 187 214 231 241 109 162 173 178 185 186 186 183 184 185 187 189 187 189 190 190 193 199 203 202 201 201 201 200 199 200 200 204 209 213 217 217 217 219 220 219 217 219 220 220 222 225 229 231 233 234 235 238 237 238 241 242 242 245 250 255 259 261 261 258 257 262 263 267 278 279 259 253 256 257 255 257 255 239 237 256 266 280 290 295 304 315
185 193 194 208 202 183 157 136 164 180 186 191 196 223 234 106 154 179 185 190 193 194 188 186 187 187 189 189 192 195 197 201 202 200 200 202 202 202 204 204 202 202 204 209 214 219 219 219 220 221 221 220 221 222 221 222 224 227 227 230 233 237 241 240 241 242 241 242 247 254 259 263 266 267 262 256 261 267 269 272 262 239 236 239 238 235 249 248 226 234 255 267 281 286 287 297 310
188 193 203 196 185 176 149 121 154 177 194 206 198 218 229 160 163 184 191 194 202 204 195 191 190 189 190 192 197 199 205 209 205 200 200 202 203 202 203 205 205 205 205 207 213 218 219 220 220 222 223 222 223 222 219 219 221 223 224 228 233 237 242 242 244 245 244 248 252 254 259 263 265 265 263 259 262 269 265 247 234 224 224 229 230 224 233 241 234 244 257 263 270 280 282 277 291
183 185 219 208 173 158 150 127 152 173 192 217 212 227 233 200 182 190 194 196 206 210 202 199 194 190 191 194 197 201 210 213 203 200 202 204 206 204 202 204 205 205 207 207 209 215 219 220 220 220 222 222 223 220 215 215 217 219 220 225 231 236 242 244 245 249 251 255 256 254 256 260 262 262 258 257 262 257 231 219 220 218 220 230 234 230 243 258 250 242 249 257 261 269 262 245 275
188 188 200 208 188 159 149 138 148 170 197 212 202 229 236 213 192 192 193 200 209 210 206 205 199 194 194 195 199 203 208 207 199 201 204 209 211 207 205 204 203 204 206 207 209 213 217 219 219 220 222 221 222 220 216 214 216 220 223 227 234 237 242 245 247 251 254 258 260 256 255 256 259 262 252 246 247 226 210 213 212 213 225 237 238 242 259 268 254 236 234 242 247 254 247 242 261
196 195 190 198 186 130 125 145 144 165 204 204 185 224 234 203 199 197 196 206 213 210 208 209 203 199 199 199 201 203 202 199 200 205 206 210 211 208 206 206 206 205 204 207 210 212 215 217 218 221 222 221 221 220 218 217 217 225 230 234 239 242 246 249 250 252 255 260 260 250 248 252 256 254 235 223 216 203 205 210 209 221 240 246 247 253 253 250 248 242 240 233 225 235 248 232 204
194 185 191 191 167 166 189 172 147 156 199 177 173 224 242 190 204 209 205 211 215 211 209 212 209 207 206 204 204 202 200 198 200 205 206 206 207 206 206 207 208 206 203 205 207 208 211 215 219 221 222 223 222 221 222 221 221 228 232 234 239 244 248 252 253 254 256 259 256 244 242 249 254 240 208 202 205 203 205 208 218 238 247 254 262 262 259 255 252 245 243 237 218 209 218 214 185
193 190 197 177 165 189 198 139 134 143 148 154 163 237 258 199 203 215 208 211 217 216 211 215 217 215 215 212 211 208 203 199 198 202 203 201 202 203 205 205 205 205 206 206 206 209 214 218 221 222 223 224 224 223 224 222 222 226 228 230 235 240 246 249 250 249 247 249 246 240 238 241 246 226 195 201 208 204 205 210 230 245 248 259 265 270 276 271 259 244 243 241 217 201 197 210 206
202 209 202 175 168 173 136 128 138 166 225 209 184 241 263 193 207 216 192 199 214 215 215 219 218 215 217 218 217 215 210 206 202 201 199 197 199 200 203 202 201 206 209 210 210 214 219 221 223 224 224 225 224 226 226 221 220 220 219 220 222 227 234 236 237 238 241 246 245 240 235 230 230 215 200 206 207 203 206 219 249 259 259 261 261 271 277 271 264 251 254 255 223 207 196 211 228
206 202 182 167 163 155 143 149 159 192 235 203 189 222 257 204 215 210 187 196 209 212 218 222 219 213 214 216 216 214 212 211 208 208 204 198 198 198 200 199 201 208 211 211 212 215 220 221 223 224 225 226 226 228 226 219 218 218 218 221 222 223 226 230 237 242 246 250 246 239 231 223 219 212 209 210 204 202 208 238 264 263 258 258 262 268 269 271 272 256 261 268 257 240 209 222 246
198 151 159 159 157 161 162 164 179 193 153 153 191 217 262 260 245 186 185 199 209 216 222 221 220 217 214 214 215 212 210 209 207 209 207 202 199 198 199 199 202 209 209 208 210 215 219 221 223 225 226 227 228 228 225 217 215 215 218 223 225 226 227 233 241 244 246 243 236 231 225 221 217 212 209 206 202 203 210 242 260 256 253 257 262 266 272 284 287 275 274 274 281 287 266 256 258
193 119 153 160 160 168 171 179 192 175 160 201 197 197 244 251 260 123 182 202 216 223 223 220 220 218 214 213 212 211 211 208 206 207 207 205 203 201 202 200 203 207 205 205 210 216 220 222 224 225 226 227 228 228 226 220 217 219 223 224 225 228 230 234 238 240 240 233 222 223 222 217 213 208 205 202 201 204 213 237 249 246 247 252 256 263 276 284 287 285 280 273 289 294 281 264 253
126 112 119 111 122 152 170 192 180 146 198 219 190 186 218 247 211 149 174 208 224 226 223 220 218 216 214 213 212 212 210 208 207 208 209 207 205 204 203 202 205 204 202 207 212 215 219 221 223 225 226 228 227 228 226 221 218 221 226 227 225 227 229 230 233 233 231 220 210 217 217 209 205 202 199 198 201 205 214 228 232 231 237 245 248 255 265 272 276 272 257 239 256 266 252 235 235
125 121 108 88 83 105 112 160 140 157 216 224 194 190 210 254 210 165 184 210 215 217 222 220 216 214 214 212 211 211 207 205 206 208 210 210 207 203 199 200 204 202 202 206 208 211 216 219 222 224 227 228 227 228 226 222 218 219 226 228 226 227 228 228 228 225 221 215 212 214 212 208 204 199 197 196 199 203 211 218 217 219 230 238 243 248 251 250 238 225 210 204 209 207 209 211 217
146 143 132 123 107 116 109 94 167 203 218 222 203 192 205 241 228 177 207 220 212 211 219 216 209 210 211 210 209 208 204 202 203 207 210 210 205 198 197 200 201 200 199 201 204 207 211 216 220 222 225 227 227 227 225 221 219 219 224 227 227 227 228 228 226 223 223 222 216 213 210 208 202 196 195 194 197 202 208 211 210 213 222 228 233 237 233 220 212 205 194 195 195 189 198 206 215
184 171 158 172 176 166 181 177 185 218 224 164 171 184 204 243 252 231 229 235 229 222 224 221 210 208 208 207 206 203 200 201 201 204 207 205 199 194 197 201 199 197 198 200 202 203 207 214 218 221 223 225 225 225 223 220 220 221 224 226 226 227 229 229 228 227 227 226 220 213 208 203 198 196 196 196 201 206 207 207 207 209 215 222 225 225 220 212 210 208 206 207 207 205 208 215 227
199 182 173 193 188 182 198 177 155 228 226 127 151 182 213 256 252 238 233 237 236 229 233 232 219 214 209 204 204 199 199 203 202 201 203 201 197 193 197 199 197 198 200 200 200 201 205 211 216 219 223 224 224 224 223 222 220 222 226 227 227 227 228 229 229 230 231 230 224 217 211 206 202 200 201 204 208 208 206 206 205 205 211 217 219 218 217 214 212 214 219 221 225 232 234 234 239
201 187 186 204 192 195 205 179 193 208 174 116 147 180 215 215 215 227 230 247 253 242 239 231 221 222 210 200 202 201 203 205 201 201 202 199 195 195 198 197 195 197 199 199 200 202 204 210 216 219 221 223 223 223 223 223 221 222 226 227 227 227 228 229 230 233 234 232 228 221 216 212 208 206 209 211 209 206 206 208 206 206 209 208 208 213 214 213 214 218 228 237 244 252 256 255 253
197 176 200 212 187 180 196 196 202 166 132 162 170 212 242 239 305 284 241 261 265 245 233 220 216 212 195 192 199 202 204 203 201 203 204 200 196 196 199 199 196 196 197 198 200 201 205 211 215 219 221 223 223 223 222 223 223 223 224 226 226 225 227 229 230 233 233 232 230 225 220 216 213 212 213 212 207 204 207 209 208 208 207 204 205 208 209 213 217 225 239 250 256 263 269 269 267
162 181 206 209 159 169 175 171 67 127 225 200 168 231 257 266 284 272 239 257 257 244 230 218 211 198 189 194 198 199 200 198 198 201 199 196 196 198 201 199 196 195 195 196 199 205 209 211 213 218 221 222 223 224 223 222 222 222 224 225 224 224 225 227 230 232 231 230 230 226 222 219 216 215 215 212 208 206 208 210 210 207 207 209 211 210 211 216 224 232 245 255 258 262 269 274 277
160 199 183 106 49 193 178 202 165 187 232 214 166 221 228 215 256 269 232 257 255 249 234 213 193 189 198 204 200 198 197 194 195 196 194 194 197 200 201 199 197 196 194 196 203 209 211 212 214 216 218 221 223 223 221 221 220 221 223 223 223 223 225 228 231 233 231 229 227 223 220 218 217 217 217 213 210 208 209 210 209 209 210 213 214 215 217 222 228 236 247 255 257 261 266 270 273
225 198 160 142 202 190 167 213 189 195 231 221 179 217 228 216 224 245 249 252 259 256 238 198 187 195 205 211 205 198 192 191 195 195 194 196 201 203 201 199 199 197 196 199 205 207 208 211 214 215 217 223 223 217 217 220 220 220 222 223 224 224 226 229 232 233 230 227 224 220 217 217 218 220 219 214 211 210 210 211 211 212 213 213 214 216 219 225 232 239 245 251 255 259 263 266 268
11 170 166 184 221 184 181 193 175 206 228 224 203 209 215 211 205 220 234 244 257 257 247 216 207 205 207 210 202 191 189 192 194 196 198 199 203 204 200 199 200 199 199 202 203 202 204 208 212 214 217 220 218 214 218 220 220 222 223 223 224 226 228 230 232 232 228 225 224 220 217 217 219 221 219 216 214 213 213 214 214 214 213 213 214 215 220 228 235 241 245 248 251 256 261 264 265
183 195 187 180 170 155 190 181 148 210 214 209 226 228 204 190 195 211 223 234 244 247 248 240 228 220 213 203 192 188 189 192 193 195 199 200 203 203 200 199 201 201 202 203 201 201 204 206 209 212 213 213 212 213 219 220 219 221 222 222 224 226 227 229 231 230 226 223 223 219 219 220 220 220 219 217 217 217 217 218 218 216 216 217 217 218 224 231 239 246 251 251 250 254 259 262 264
198 201 195 187 180 161 197 210 179 194 211 190 225 248 224 178 190 208 214 226 236 240 242 245 250 245 225 192 189 192 188 192 195 195 197 198 199 199 197 196 199 201 202 202 202 203 205 205 207 209 210 211 209 210 217 219 217 219 221 220 221 224 224 224 225 223 219 219 221 221 223 225 224 223 220 218 219 220 221 222 221 220 220 221 222 224 228 234 241 247 249 248 249 252 256 260 265
Height
776 777 778 779 779 781 784 783 796 796 794 811 809 808 807 797 797 802 806 804 805 805 798 799 799 799 803 809 815 817 819 819 820 826 830 824 819 822 821 821 822 822 823 823 824 825 827 829 830 832 833 835 836 837 839 840 841 842 843 843 844 844 845 846 847 848 849 850 851 851 852 853 854 855 855 856 857 858 858 859 859 859 860 861 861 861 861 861 861 862 862 862 862 861 861 860 859
776 778 778 780 780 784 786 782 801 805 804 819 812 808 806 797 801 805 806 804 805 803 797 799 801 802 803 806 809 812 817 816 814 816 818 818 820 822 821 822 822 823 825 825 826 827 828 829 831 833 835 836 837 839 840 841 842 843 844 844 845 845 846 847 848 849 850 851 852 853 854 854 855 856 857 858 858 859 859 860 860 861 861 862 862 862 862 862 863 863 863 863 862 862 862 861 860
776 778 777 781 780 781 783 784 803 811 813 823 816 806 802 802 806 805 802 801 801 798 798 799 802 804 806 810 812 815 819 815 812 813 816 819 820 821 823 823 823 824 825 827 828 829 830 831 832 834 835 837 839 840 841 842 843 843 845 845 846 847 848 849 850 851 852 853 854 855 856 856 857 857 858 859 859 860 860 861 861 862 862 863 863 863 863 863 864 864 864 864 863 863 862 862 862
775 777 777 778 781 783 787 793 803 809 816 820 816 807 801 805 806 804 802 799 798 796 799 802 807 806 805 816 815 816 820 816 813 813 815 818 820 822 823 823 823 823 825 828 829 831 832 832 834 835 836 838 840 842 842 843 843 844 845 846 847 848 849 850 851 852 853 854 855 856 857 858 858 859 859 859 860 860 861 861 862 863 863 864 864 864 864 865 865 864 864 865 864 864 863 863 863
775 777 776 776 784 788 791 799 802 806 813 811 812 809 802 803 804 805 802 799 798 798 801 803 812 809 806 814 813 817 821 816 814 813 815 817 819 822 824 824 824 824 825 828 830 832 833 834 835 836 837 839 841 842 843 844 844 845 846 847 849 850 850 851 852 853 854 856 856 858 858 859 859 860 860 860 861 861 862 862 863 863 864 865 865 865 866 866 866 865 865 866 865 865 864 863 863
774 776 774 774 782 785 792 803 805 806 804 801 805 806 802 800 801 803 802 801 798 798 800 802 810 811 813 814 811 815 816 815 815 814 815 817 819 822 824 825 826 825 826 828 831 832 834 835 836 838 839 840 841 843 844 845 846 846 848 849 850 851 852 853 853 855 856 857 858 859 860 860 860 861 861 861 862 862 863 863 863 864 864 865 866 867 867 867 867 866 866 867 866 865 864 863 863
773 776 777 780 784 785 797 805 805 806 799 795 798 801 801 799 798 800 802 804 803 801 801 803 804 809 819 816 814 815 813 815 814 815 816 817 819 822 825 826 827 827 827 829 831 833 834 836 837 839 840 841 842 844 845 846 847 848 849 850 851 851 852 854 855 856 857 858 859 859 860 861 861 861 861 862 862 863 863 863 864 864 865 865 866 867 868 868 868 868 868 868 868 866 864 863 863
771 777 780 788 795 793 801 805 803 805 798 793 793 796 798 797 797 799 803 804 806 805 804 805 802 811 822 815 818 818 813 816 814 816 817 817 820 822 825 827 829 829 829 830 832 834 835 837 839 840 842 843 843 844 846 847 848 849 850 851 851 852 854 855 856 857 857 859 859 860 861 861 862 862 862 862 863 863 864 864 864 865 865 866 867 868 869 869 869 868 868 868 868 867 865 864 864
770 777 783 792 799 799 804 806 805 802 798 795 794 795 796 796 796 798 803 804 804 806 806 805 802 814 822 818 821 819 815 818 816 818 818 820 822 823 826 828 830 831 831 832 832 835 836 838 840 841 842 843 844 846 847 848 849 850 851 851 852 854 855 855 856 857 858 859 860 861 861 862 862 862 863 863 863 864 864 865 865 866 866 867 868 869 869 869 869 869 868 867 868 867 866 865 865
773 779 787 796 800 804 808 808 807 803 799 796 795 795 795 795 796 799 802 805 804 805 807 803 804 813 820 822 823 818 817 819 818 820 820 822 823 825 827 829 831 832 833 833 834 835 836 839 840 842 843 844 845 847 849 850 850 851 852 852 853 854 855 856 857 858 859 860 860 861 862 862 863 863 863 863 864 864 865 865 866 866 867 868 869 869 869 869 869 869 869 868 867 867 866 865 865
781 783 787 798 803 808 809 809 808 804 800 796 797 795 794 794 797 801 802 805 804 806 808 805 811 815 818 824 822 819 818 819 819 821 822 823 825 826 828 830 832 832 834 834 835 837 837 839 840 842 843 845 846 848 850 851 851 852 853 853 854 855 856 857 858 859 859 860 861 861 862 863 864 864 864 864 864 865 865 866 866 867 867 868 868 869 868 868 869 869 869 868 867 866 866 865 865
787 790 790 801 804 806 805 808 809 805 802 800 802 796 792 794 799 803 804 807 806 808 808 806 811 811 820 827 822 820 819 821 821 822 823 825 826 828 829 831 832 833 835 836 837 838 839 840 841 843 844 846 848 849 851 851 852 853 854 854 855 856 857 858 859 859 860 861 861 862 863 863 864 864 864 864 865 865 866 866 867 867 868 868 868 868 867 867 868 868 869 868 868 866 864 864 864
785 791 792 802 803 803 804 807 808 807 807 802 800 795 792 796 800 801 803 807 807 810 807 803 805 807 820 826 821 820 819 821 822 823 825 826 828 829 831 832 833 834 835 837 838 840 841 842 843 844 846 847 849 850 851 852 853 854 855 855 856 857 858 858 859 859 860 860 861 862 862 863 864 864 864 865 865 866 866 867 867 867 868 868 869 867 865 867 868 867 868 867 868 868 865 863 865
779 784 789 802 803 802 803 806 808 809 809 799 795 793 793 797 798 797 799 808 809 807 804 799 800 808 820 823 824 822 819 821 822 824 826 827 829 830 832 833 834 835 836 838 839 841 841 843 844 845 846 848 849 850 851 852 853 854 855 856 857 857 858 858 858 859 860 860 861 862 863 863 864 864 865 865 866 866 866 867 867 868 868 869 869 866 865 866 867 866 866 866 867 868 866 865 866
775 779 785 799 804 803 803 804 804 806 805 796 794 793 795 796 795 797 797 804 808 800 800 801 801 809 817 819 822 818 816 821 822 825 826 828 830 831 833 834 835 836 838 839 839 841 842 843 845 846 847 849 850 851 852 853 854 854 855 856 856 857 857 858 858 859 860 861 861 862 863 863 864 864 865 866 866 867 867 868 868 868 868 869 870 867 865 865 865 865 865 865 865 866 866 865 865
771 776 787 799 804 805 803 801 802 806 801 793 792 791 799 800 793 799 795 795 804 800 800 805 802 805 810 811 813 812 816 820 822 826 827 829 831 832 834 835 837 837 839 840 840 841 842 844 845 847 848 849 851 851 853 854 854 855 856 856 856 857 857 858 858 859 860 861 862 863 864 864 865 865 866 866 866 867 867 868 868 867 868 869 870 869 867 866 865 865 864 864 864 865 865 864 864
770 778 793 800 802 803 799 799 801 801 795 792 792 791 801 804 796 797 793 792 801 804 803 804 802 801 804 807 809 811 817 820 823 826 827 830 831 833 835 835 837 837 839 840 841 842 842 844 845 846 848 849 851 851 853 854 855 855 856 857 857 857 857 858 859 860 861 861 862 863 864 864 865 866 866 866 866 867 867 867 867 867 867 868 869 869 868 866 865 864 863 863 864 864 864 864 864
775 786 796 798 798 795 789 790 790 787 790 792 791 790 796 803 801 797 797 800 802 805 805 804 803 801 803 806 809 814 817 820 823 825 827 829 831 832 834 835 836 837 839 840 841 842 843 844 845 846 847 849 850 851 853 854 855 855 856 857 858 858 858 859 860 860 861 861 862 862 863 864 865 865 865 866 866 866 866 866 866 866 867 867 868 868 867 866 865 864 863 863 863 863 863 863 863
778 786 794 793 788 782 776 779 781 781 785 788 788 789 792 798 798 796 802 809 806 809 810 807 808 806 805 808 811 815 817 820 822 824 826 828 830 831 833 834 836 837 838 839 841 842 843 844 845 846 847 849 850 851 853 854 855 855 856 857 858 859 859 860 860 861 861 862 862 862 863 864 864 865 865 865 865 866 866 866 866 866 866 866 867 867 867 866 864 863 862 863 863 863 863 862 862
775 781 792 786 776 776 772 773 776 775 778 784 789 788 791 794 793 795 802 809 808 808 808 808 811 810 808 808 810 814 817 820 822 823 825 827 829 830 831 832 834 835 837 838 840 841 843 844 845 846 847 849 850 851 852 854 855 855 856 858 859 859 859 860 861 861 861 862 862 863 863 863 864 864 865 865 865 865 865 865 865 865 866 866 866 866 866 865 864 863 862 862 862 862 862 862 862
773 777 784 775 769 775 772 769 771 771 774 781 787 789 794 792 790 795 800 810 811 805 800 800 804 805 806 807 809 813 816 818 820 822 824 826 828 829 831 832 833 835 836 838 840 841 842 843 845 846 847 848 850 851 852 854 855 856 857 858 859 859 859 860 860 861 861 862 862 863 863 863 864 864 864 864 864 865 865 865 865 865 865 865 865 865 865 864 863 863 862 862 862 862 862 862 862
772 772 771 768 769 773 769 766 769 770 773 780 786 790 791 790 791 794 797 805 804 796 793 794 796 799 802 804 807 812 815 818 819 821 823 825 827 828 830 832 833 835 837 838 839 841 842 843 845 846 847 848 849 851 852 853 854 855 856 857 858 858 859 859 860 861 861 862 862 862 863 863 863 863 863 863 864 864 864 865 865 865 864 864 864 864 864 864 863 863 863 862 862 862 862 862 862
773 772 765 766 767 768 766 765 767 768 774 780 784 784 784 791 795 792 793 797 792 786 788 792 795 797 800 804 806 810 813 816 818 819 821 823 825 827 829 831 832 834 836 837 838 840 841 843 844 845 847 848 849 850 851 853 853 854 855 856 857 857 858 859 860 860 861 861 861 862 862 863 863 863 863 863 864 864 864 864 865 865 864 864 864 864 864 863 863 863 863 863 862 862 862 862 861
772 773 766 765 764 764 763 763 765 766 772 775 776 780 785 791 794 792 792 792 787 785 786 790 795 798 801 804 807 809 811 813 815 818 821 822 825 827 829 830 832 834 835 837 838 839 841 842 844 845 846 848 849 850 851 852 853 854 854 855 856 857 857 858 859 859 860 860 860 861 861 862 863 863 863 863 863 863 864 864 864 864 864 864 864 864 864 864 863 863 863 863 862 862 862 861 861
770 771 766 764 764 763 761 762 764 765 769 771 775 783 786 786 788 791 792 790 787 785 787 791 796 799 802 804 807 809 811 814 816 819 821 823 826 828 830 831 832 833 834 835 837 839 840 842 843 845 846 847 848 849 850 851 852 853 854 855 855 856 857 858 858 859 859 859 859 860 860 861 862 862 863 863 863 863 863 863 863 864 864 864 864 864 864 864 864 863 863 863 862 862 861 861 860
765 764 763 763 764 762 762 764 765 767 770 772 780 788 788 784 786 793 791 788 788 787 789 792 796 801 803 804 806 808 811 813 816 818 821 823 826 828 829 830 831 832 833 834 836 838 839 841 842 843 845 846 847 848 849 850 851 852 853 854 854 855 856 857 857 858 858 858 858 859 859 860 861 861 862 862 862 862 862 862 863 863 863 863 863 863 863 863 863 863 863 862 862 861 861 860 860
758 760 762 763 764 763 762 766 767 769 772 773 782 791 789 784 789 796 790 786 788 789 793 793 796 801 803 804 806 808 811 812 815 818 820 823 824 825 826 828 829 830 832 834 835 837 838 840 841 842 844 845 846 847 848 849 850 851 852 853 853 854 855 856 856 856 856 857 857 858 859 859 860 860 861 861 861 861 861 861 862 862 862 862 863 863 863 863 863 862 862 861 861 860 860 859 859
757 760 766 767 766 766 765 768 769 770 777 776 779 792 792 790 793 792 786 786 787 791 796 796 797 800 802 805 806 808 810 812 815 817 818 820 821 822 824 825 827 829 830 832 834 836 837 838 840 842 843 844 845 847 848 849 850 850 851 852 852 853 854 854 854 855 855 855 856 857 857 858 858 859 859 860 860 860 860 860 861 861 861 861 862 862 862 862 862 861 861 860 860 859 859 859 858
757 757 770 775 770 773 772 771 769 770 780 775 777 798 801 796 794 787 783 786 787 792 797 798 798 800 802 804 805 808 809 811 814 815 815 817 819 820 822 824 826 828 829 831 833 834 836 838 839 840 841 843 844 845 847 847 848 849 850 850 851 852 852 853 853 853 854 854 855 855 856 857 857 858 858 858 859 859 859 859 860 860 860 860 861 861 861 861 861 860 860 859 859 859 859 858 858
760 761 770 778 780 782 775 772 771 772 779 770 777 804 803 792 790 785 784 785 789 794 796 798 799 799 801 803 805 807 807 809 811 812 814 815 817 819 821 823 824 826 828 830 832 833 835 836 838 839 840 841 842 844 845 846 847 847 848 849 849 850 850 851 852 852 853 853 854 854 855 856 856 856 857 857 857 858 858 858 858 859 859 860 860 860 860 860 860 859 859 859 859 858 858 858 858
765 769 772 777 787 787 775 773 774 779 782 769 779 802 794 786 788 785 784 784 788 794 795 796 797 798 799 801 803 805 805 807 808 810 812 814 816 818 819 822 823 825 826 828 829 831 833 834 836 837 838 840 841 842 843 844 845 845 846 847 848 848 849 850 850 851 852 852 853 853 854 855 855 855 855 855 856 856 857 856 857 858 858 859 859 859 859 859 859 858 858 858 858 858 858 858 858
768 777 784 782 784 786 779 774 773 780 783 773 784 800 790 784 786 784 783 784 787 792 794 794 796 796 797 799 801 803 804 805 807 809 810 812 814 816 818 820 821 823 824 826 827 829 831 832 834 835 836 837 838 839 840 842 843 843 844 845 846 847 847 848 849 850 850 851 852 852 853 853 853 853 854 854 854 854 854 854 855 857 858 858 858 858 858 858 858 857 857 858 858 858 858 858 857
774 777 788 785 783 788 785 778 771 774 781 780 785 793 790 785 783 782 782 784 787 791 793 793 795 795 795 797 799 800 803 804 805 807 808 811 812 814 816 817 819 821 822 824 825 827 829 830 831 833 834 835 836 837 839 840 841 842 842 843 844 845 845 846 847 848 848 849 850 850 851 851 851 852 852 852 852 852 852 853 854 855 856 856 857 857 857 857 857 857 857 857 857 857 857 857 857
782 780 784 784 782 785 787 785 776 771 780 784 785 787 788 787 784 784 784 784 787 790 792 792 793 795 795 796 798 799 801 802 802 803 805 808 810 812 814 816 817 819 821 822 823 825 826 828 829 830 831 833 834 835 837 838 839 840 841 842 842 843 844 844 845 845 846 847 847 848 848 849 850 850 850 851 851 851 851 852 853 853 854 855 855 855 856 856 855 856 856 856 856 856 856 856 856
782 783 783 785 783 783 785 786 779 775 781 784 789 791 788 788 787 786 786 785 788 789 789 790 791 793 795 796 797 798 799 799 798 799 803 805 808 810 812 814 816 817 819 820 822 823 824 826 827 828 829 831 832 833 835 836 837 838 839 839 840 841 842 842 842 843 844 845 845 846 846 847 848 848 849 849 849 849 850 851 852 852 853 853 854 854 855 854 854 854 854 855 855 855 855 855 855
771 774 775 779 782 783 781 779 774 774 785 787 788 791 788 789 790 788 788 786 788 789 788 789 790 791 793 795 796 797 798 796 795 797 801 803 805 807 809 811 813 815 817 818 819 821 822 824 825 826 827 829 830 831 833 834 835 836 837 837 838 839 840 840 840 840 841 842 843 844 844 844 846 846 846 847 847 848 849 850 851 851 851 852 852 853 853 853 853 853 853 853 854 854 854 854 854
764 770 775 775 778 783 778 776 772 770 785 790 785 789 788 788 789 787 787 787 789 790 789 790 790 790 792 793 795 795 795 794 794 797 799 801 804 805 807 809 811 813 814 816 817 819 820 821 823 824 825 827 828 829 831 832 832 833 834 835 835 836 837 838 838 839 839 840 841 842 842 843 844 844 844 844 845 846 848 849 849 850 850 851 851 851 852 852 851 852 852 852 853 852 852 852 852
763 768 775 777 778 780 775 775 772 769 782 789 784 789 789 786 787 785 785 788 787 786 787 789 788 789 789 790 792 792 792 792 794 796 798 800 802 803 806 807 809 810 812 814 815 816 818 819 821 822 823 825 826 827 828 829 830 831 831 832 833 835 835 836 837 837 838 838 838 839 840 841 841 842 842 843 844 845 847 848 848 848 849 849 849 850 850 850 850 851 851 851 852 851 851 851 851
764 766 772 779 777 778 778 774 771 771 780 786 786 789 787 783 784 782 783 784 782 780 782 785 786 788 788 788 789 789 790 792 793 794 795 798 799 801 804 805 806 808 809 811 812 814 816 817 818 820 821 822 823 825 826 827 828 829 830 831 832 833 833 835 836 836 836 837 837 837 838 838 840 841 841 842 844 845 846 846 847 847 848 848 848 848 849 849 849 849 850 850 851 851 850 850 850
765 767 772 778 775 779 783 777 774 774 778 782 785 787 785 783 784 782 779 778 778 778 778 780 782 784 784 783 784 785 787 790 790 791 792 794 797 799 800 802 804 805 807 808 810 812 813 814 816 817 818 820 821 823 824 825 827 828 829 830 831 832 832 833 834 835 835 835 836 836 836 837 838 840 840 842 843 844 845 845 846 846 847 847 847 848 848 848 848 848 849 849 850 850 850 849 849
765 764 766 772 773 772 773 774 776 778 780 779 782 792 787 781 785 783 777 777 778 778 778 779 779 778 780 780 780 781 782 784 786 787 788 789 792 794 796 798 801 803 804 805 807 808 810 811 813 814 816 817 819 820 821 824 825 827 828 829 830 831 831 832 832 833 834 834 835 836 836 836 838 839 840 841 842 843 844 845 845 845 846 846 846 847 847 847 847 847 848 848 848 849 849 849 849
766 762 758 761 766 768 770 774 778 788 794 779 781 805 797 778 782 780 775 779 780 778 779 778 777 777 778 779 778 778 778 778 780 781 782 784 787 790 792 795 797 799 800 802 804 805 806 808 810 812 813 814 816 817 819 822 823 824 826 827 828 829 830 830 831 831 832 834 834 835 836 836 837 839 840 841 842 843 843 844 844 845 845 845 846 846 847 847 847 847 847 847 848 848 849 849 849
767 758 752 756 760 766 772 773 779 794 797 777 776 800 799 782 779 775 773 779 779 778 777 775 774 774 774 774 774 774 775 775 776 776 777 780 782 785 788 791 793 795 796 799 801 802 803 805 807 808 810 811 813 814 816 819 821 822 823 824 825 826 827 828 829 830 832 833 833 834 835 836 837 838 839 841 842 842 843 843 844 845 845 845 845 846 846 846 846 847 847 847 848 848 849 849 849
762 750 748 756 759 765 770 770 777 783 785 782 778 786 797 790 777 772 772 778 780 777 775 772 769 768 767 768 768 768 770 770 772 773 774 775 778 780 783 785 788 790 793 796 798 799 800 802 803 805 806 808 809 811 814 816 818 819 820 821 822 823 825 826 828 829 831 832 833 833 834 835 836 837 839 840 841 842 842 843 844 844 845 845 845 845 845 846 846 847 847 847 848 848 849 849 849
753 746 748 753 755 760 763 766 774 776 785 797 789 785 803 798 777 773 775 778 782 775 769 767 763 762 762 762 762 762 763 764 766 768 769 771 773 776 778 781 783 786 789 792 794 796 797 799 800 801 803 804 806 808 810 813 815 816 817 818 820 821 822 825 826 828 830 831 832 832 833 835 835 837 838 839 840 841 842 843 844 844 845 845 845 845 845 846 846 846 847 847 848 848 849 849 849
746 746 750 753 757 760 763 767 773 782 793 800 791 787 801 796 775 776 783 781 776 765 758 757 755 756 756 756 757 757 759 760 761 763 764 766 768 771 775 778 781 783 785 788 790 793 795 796 797 798 799 801 803 805 807 810 812 813 814 815 816 818 820 822 825 826 828 830 831 831 832 833 835 836 837 839 840 841 842 843 843 844 845 845 846 846 846 846 846 847 847 847 848 848 849 849 849
743 747 753 762 768 767 772 774 775 794 804 793 782 781 791 792 773 769 774 766 756 752 752 750 749 751 751 751 752 752 755 756 757 759 760 762 765 768 772 775 778 780 782 785 787 789 791 792 793 794 795 797 799 801 804 806 809 810 811 812 814 816 818 820 822 824 826 828 829 829 831 832 833 835 836 837 839 840 841 842 843 844 845 845 846 846 847 847 847 847 847 847 848 848 849 849 849
742 748 755 768 779 778 785 787 786 804 807 786 775 775 786 793 772 756 753 742 738 743 743 742 743 744 744 744 745 746 749 752 754 756 757 759 763 766 769 771 774 776 778 780 783 785 787 788 790 791 792 794 796 798 801 803 806 807 808 809 812 814 816 818 820 822 824 825 827 828 829 831 832 834 835 836 837 838 839 840 842 843 844 845 845 846 846 846 847 847 847 848 848 848 849 849 849
744 749 757 774 790 794 800 802 800 804 796 781 777 779 787 785 760 747 746 737 733 733 729 730 732 735 736 737 739 741 744 746 749 752 753 756 759 761 765 767 769 772 773 776 778 781 783 784 786 788 788 790 793 795 798 800 802 804 805 807 809 812 814 816 818 820 822 824 825 827 828 830 831 832 833 834 835 836 837 838 839 841 842 843 843 844 845 845 846 846 847 847 848 848 848 848 848
748 749 757 772 789 802 809 810 809 803 788 779 779 782 787 776 750 738 737 730 725 723 723 724 725 728 731 732 734 737 739 741 743 745 748 751 753 756 759 762 764 767 769 772 774 777 779 780 782 784 785 787 790 792 794 797 799 801 803 805 807 810 812 814 816 818 820 822 823 824 826 827 828 829 830 831 832 833 834 835 837 838 840 841 842 842 843 844 845 845 846 847 847 848 848 848 848
745 739 744 758 768 782 795 798 798 793 786 785 787 785 781 768 747 732 726 722 719 719 720 721 723 724 725 728 731 734 736 737 739 741 743 745 747 751 754 756 759 762 765 768 771 773 775 776 778 779 781 784 786 788 791 793 796 798 800 803 805 807 810 812 814 816 818 819 820 821 822 823 824 825 826 827 829 830 832 833 834 836 837 839 840 841 842 842 843 844 845 846 846 847 847 847 847
742 734 742 751 746 753 772 779 776 776 783 789 789 780 762 748 736 724 722 723 719 718 717 718 721 721 723 727 728 729 731 732 734 736 738 740 742 745 748 751 754 757 761 764 766 768 770 772 773 775 777 780 782 784 787 789 792 795 797 800 802 805 807 810 811 813 815 816 818 818 820 821 822 823 824 825 826 828 830 832 833 834 835 836 838 839 840 841 841 842 843 844 844 845 845 846 846
740 742 745 741 730 736 763 779 776 775 782 783 780 772 756 746 736 720 720 724 718 716 716 715 718 718 722 724 722 723 724 725 727 729 732 734 736 739 741 744 748 751 755 758 760 762 764 766 769 771 773 776 778 780 783 786 789 791 794 796 799 802 804 806 808 810 812 813 815 816 818 819 820 822 822 823 824 826 828 830 831 832 833 834 836 837 838 839 840 840 841 842 843 843 844 844 845
735 742 735 731 734 737 750 772 783 785 785 778 774 769 758 758 749 726 722 726 718 713 712 713 716 717 719 718 716 716 716 717 721 722 725 728 729 732 735 738 742 745 748 751 753 756 758 761 764 766 769 771 773 776 779 782 785 788 790 793 796 799 801 804 806 807 809 811 812 814 816 818 819 821 821 822 823 824 826 827 829 830 831 832 833 835 836 837 837 838 839 840 841 841 842 842 842
720 723 716 726 747 753 755 767 778 785 787 778 774 771 760 756 748 729 724 724 716 710 708 711 716 715 714 712 710 711 712 715 717 719 722 724 724 727 730 734 737 740 743 745 747 751 755 758 760 762 765 766 770 774 776 778 781 784 787 790 793 796 798 801 803 805 806 808 810 812 814 816 818 820 821 822 822 823 825 826 827 828 829 830 831 832 834 835 835 836 837 837 838 839 840 840 840
716 717 715 721 733 742 748 752 756 767 779 776 776 776 761 744 734 727 722 716 710 708 706 707 709 708 707 706 706 709 711 712 713 715 717 717 718 721 725 729 732 735 738 740 744 748 750 753 755 757 760 763 767 770 772 775 778 781 784 787 790 792 795 798 800 802 805 807 810 812 814 816 818 820 821 822 823 824 824 825 826 827 827 828 829 830 831 832 833 834 835 835 836 837 838 838 838
722 725 728 728 728 730 736 742 744 750 765 773 774 771 753 729 719 718 714 708 704 702 701 701 700 698 698 699 701 704 706 707 708 709 710 711 714 717 721 725 728 731 734 736 740 743 744 747 749 752 756 760 763 767 769 771 774 777 780 783 786 789 792 795 799 801 805 809 812 814 816 818 819 820 821 822 824 824 825 825 826 826 826 827 827 827 829 830 831 832 833 833 834 835 836 836 836
713 720 724 725 726 731 742 752 749 742 750 759 763 763 743 714 707 708 705 702 697 694 697 698 695 693 694 696 697 699 701 702 703 703 705 707 709 713 717 721 725 728 730 733 737 739 740 742 745 748 752 756 760 763 764 767 770 773 776 779 784 788 791 795 799 802 807 812 815 817 819 821 821 821 821 822 823 824 825 825 825 825 826 826 826 826 826 827 828 829 830 831 832 832 833 834 834